N7NKE Weather Reports


Display with metric or nautical units.
time (UTC)temp
F
wind
direction
speed
MPH
gust
MPH
rain 1hr
in
rain 24hr
in
rain mn
in
humidity
%
barometer
mb
20260507180504 57 338 1.0 3.0 0.00 0.00 0.00 68 1020.5
20260507180005 57 335 2.0 2.0 0.00 0.00 0.00 67 1020.5
20260507175505 58 15 2.0 3.0 0.00 0.00 0.00 67 1020.5
20260507175005 58 30 1.0 2.0 0.00 0.00 0.00 65 1020.6
20260507174505 58 351 2.0 6.0 0.00 0.00 0.00 66 1020.6
20260507174005 58 44 2.0 8.0 0.00 0.00 0.00 66 1020.6
20260507173505 57 23 3.0 7.0 0.00 0.00 0.00 67 1020.7
20260507173006 57 318 1.0 3.0 0.00 0.00 0.00 67 1020.7
20260507172505 56 346 2.0 3.0 0.00 0.00 0.00 69 1020.7
20260507172005 56 312 2.0 3.0 0.00 0.00 0.00 68 1020.7
20260507171505 56 332 3.0 5.0 0.00 0.00 0.00 68 1020.8
20260507171005 56 353 2.0 3.0 0.00 0.00 0.00 68 1020.8
20260507170505 57 43 1.0 3.0 0.00 0.00 0.00 68 1020.8
20260507165505 56 341 2.0 5.0 0.00 0.00 0.00 69 1020.7
20260507165005 55 173 2.0 3.0 0.00 0.00 0.00 68 1020.8
20260507164505 55 310 2.0 5.0 0.00 0.00 0.00 69 1020.9
20260507164005 54 290 1.0 5.0 0.00 0.00 0.00 70 1020.9
20260507163005 54 0 2.0 3.0 0.00 0.00 0.00 70 1020.9
20260507162505 54 17 2.0 5.0 0.00 0.00 0.00 71 1020.9
20260507162005 53 0 3.0 5.0 0.00 0.00 0.00 71 1020.9
20260507161505 53 327 3.0 5.0 0.00 0.00 0.00 72 1020.9
20260507161005 53 334 2.0 5.0 0.00 0.00 0.00 72 1020.9
20260507160504 52 329 3.0 5.0 0.00 0.00 0.00 75 1021.0
20260507160005 52 8 3.0 5.0 0.00 0.00 0.00 74 1021.0
20260507155505 52 3 2.0 5.0 0.00 0.00 0.00 74 1021.1
20260507155005 52 358 4.0 7.0 0.00 0.00 0.00 74 1021.0
20260507154505 52 330 3.0 3.0 0.00 0.00 0.00 75 1021.0
20260507154006 51 345 2.0 6.0 0.00 0.00 0.00 75 1021.0
20260507153505 51 335 4.0 6.0 0.00 0.00 0.00 75 1021.1
20260507152505 51 329 2.0 5.0 0.00 0.00 0.00 76 1021.0
20260507152005 51 342 1.0 3.0 0.00 0.00 0.00 76 1021.0
20260507151505 51 321 1.0 5.0 0.00 0.00 0.00 76 1021.0
20260507151005 51 5 2.0 5.0 0.00 0.00 0.00 76 1020.9
20260507150505 51 343 1.0 3.0 0.00 0.00 0.00 76 1021.0
20260507150006 51 328 2.0 3.0 0.00 0.00 0.00 76 1021.0
20260507145506 50 357 2.0 5.0 0.00 0.00 0.00 76 1021.0
20260507144005 50 337 2.0 5.0 0.00 0.00 0.00 76 1020.9
20260507143505 50 358 2.0 5.0 0.00 0.00 0.00 76 1020.9
20260507142505 50 345 2.0 2.0 0.00 0.00 0.00 76 1020.9
20260507142005 50 315 1.0 6.0 0.00 0.00 0.00 76 1020.9
20260507141505 50 330 3.0 5.0 0.00 0.00 0.00 77 1020.9
20260507141007 50 331 2.0 5.0 0.00 0.00 0.00 77 1020.8
20260507140505 50 350 2.0 3.0 0.00 0.00 0.00 77 1020.7
20260507140006 50 336 2.0 3.0 0.00 0.00 0.00 78 1020.8
20260507135505 50 354 1.0 2.0 0.00 0.00 0.00 78 1020.7
20260507135006 50 335 1.0 5.0 0.00 0.00 0.00 77 1020.7
20260507134505 50 335 3.0 5.0 0.00 0.00 0.00 77 1020.6
20260507134005 50 329 2.0 6.0 0.00 0.00 0.00 77 1020.6
20260507133505 50 342 3.0 5.0 0.00 0.00 0.00 77 1020.6
20260507133005 50 332 3.0 5.0 0.00 0.00 0.00 77 1020.5
20260507132505 50 345 3.0 6.0 0.00 0.00 0.00 77 1020.6
20260507132005 50 327 3.0 5.0 0.00 0.00 0.00 77 1020.6
20260507131505 50 350 2.0 6.0 0.00 0.00 0.00 77 1020.5
20260507130505 50 339 2.0 5.0 0.00 0.00 0.00 77 1020.5
20260507125504 51 341 3.0 5.0 0.00 0.00 0.00 77 1020.4
20260507125005 51 335 2.0 3.0 0.00 0.00 0.00 77 1020.4
20260507124005 51 332 2.0 3.0 0.00 0.00 0.00 77 1020.4
20260507123505 51 329 1.0 2.0 0.00 0.00 0.00 77 1020.4
20260507123006 51 331 1.0 2.0 0.00 0.00 0.00 77 1020.5
20260507122505 51 328 1.0 2.0 0.00 0.00 0.00 76 1020.4
20260507122005 51 319 1.0 3.0 0.00 0.00 0.00 76 1020.5
20260507121005 51 333 1.0 3.0 0.00 0.00 0.00 76 1020.6
20260507120505 51 337 2.0 3.0 0.00 0.00 0.00 76 1020.7
20260507120005 52 330 1.0 3.0 0.00 0.00 0.00 76 1020.7
20260507115005 52 322 1.0 3.0 0.00 0.00 0.00 76 1020.7
20260507114505 52 338 1.0 3.0 0.00 0.00 0.00 76 1020.8
20260507113505 52 328 1.0 3.0 0.00 0.00 0.00 76 1020.8
20260507112505 52 316 2.0 3.0 0.00 0.00 0.00 76 1020.9
20260507111507 52 332 1.0 3.0 0.00 0.00 0.00 76 1020.9
20260507111005 52 329 1.0 5.0 0.00 0.00 0.00 76 1020.9
20260507110505 52 327 2.0 3.0 0.00 0.00 0.00 75 1020.9
20260507110005 52 336 2.0 5.0 0.00 0.00 0.00 76 1020.9
20260507105005 52 331 2.0 5.0 0.00 0.00 0.00 76 1020.9
20260507104506 52 329 2.0 5.0 0.00 0.00 0.00 76 1021.0
20260507103005 52 331 2.0 5.0 0.00 0.00 0.00 76 1021.1
20260507102505 52 330 2.0 5.0 0.00 0.00 0.00 76 1021.2
20260507102007 53 338 3.0 3.0 0.00 0.00 0.00 75 1021.3
20260507101507 53 6 3.0 8.0 0.00 0.00 0.00 76 1021.2
20260507101004 53 352 3.0 5.0 0.00 0.00 0.00 76 1021.2
20260507100504 53 336 2.0 3.0 0.00 0.00 0.00 76 1021.3
20260507100005 53 336 2.0 7.0 0.00 0.00 0.00 76 1021.2
20260507095505 53 348 2.0 5.0 0.00 0.00 0.00 76 1021.3
20260507095005 53 351 2.0 3.0 0.00 0.00 0.00 76 1021.3
20260507094505 53 338 2.0 5.0 0.00 0.00 0.00 75 1021.3
20260507094005 53 327 3.0 5.0 0.00 0.00 0.00 76 1021.3
20260507093505 53 358 2.0 5.0 0.00 0.00 0.00 76 1021.3
20260507093006 53 339 2.0 6.0 0.00 0.00 0.00 76 1021.3
20260507092505 53 337 1.0 3.0 0.00 0.00 0.00 76 1021.4
20260507092005 53 356 2.0 3.0 0.00 0.00 0.00 76 1021.4
20260507091005 53 340 1.0 2.0 0.00 0.00 0.00 76 1021.5
20260507090505 53 302 1.0 2.0 0.00 0.00 0.00 75 1021.6
20260507090006 53 345 1.0 2.0 0.00 0.00 0.00 76 1021.6
20260507085005 53 319 2.0 5.0 0.00 0.00 0.00 75 1021.6
20260507084005 53 326 2.0 2.0 0.00 0.00 0.00 75 1021.6
20260507083505 53 328 1.0 5.0 0.00 0.00 0.00 75 1021.5
20260507083006 53 330 3.0 5.0 0.00 0.00 0.00 75 1021.5
20260507082505 53 334 2.0 3.0 0.00 0.00 0.00 76 1021.6
20260507081504 53 331 3.0 5.0 0.00 0.00 0.00 76 1021.6
20260507081005 53 329 2.0 5.0 0.00 0.00 0.00 76 1021.6
20260507080504 53 347 2.0 3.0 0.00 0.00 0.00 76 1021.5
20260507080005 53 330 2.0 3.0 0.00 0.00 0.00 76 1021.5
20260507075505 54 357 2.0 3.0 0.00 0.00 0.00 76 1021.6
20260507075004 54 329 2.0 2.0 0.00 0.00 0.00 77 1021.5
20260507074504 54 343 2.0 5.0 0.00 0.00 0.00 77 1021.5
20260507074005 54 330 3.0 5.0 0.00 0.00 0.00 77 1021.5
20260507073505 54 334 3.0 6.0 0.00 0.00 0.00 77 1021.5
20260507073005 54 332 2.0 6.0 0.00 0.00 0.00 78 1021.5
20260507072504 54 332 2.0 3.0 0.00 0.00 0.00 78 1021.5
20260507072006 54 342 1.0 2.0 0.00 0.00 0.00 78 1021.5
20260507071505 54 310 2.0 3.0 0.00 0.00 0.00 79 1021.4
20260507071005 53 301 1.0 5.0 0.00 0.00 0.00 78 1021.4
20260507070010 54 333 4.0 5.0 0.00 0.00 0.00 79 1021.4
20260507065005 54 337 3.0 5.0 0.00 0.00 0.00 80 1021.3
20260507064505 54 344 2.0 5.0 0.00 0.00 0.00 80 1021.3
20260507064005 54 328 3.0 5.0 0.00 0.00 0.00 80 1021.3
20260507063505 54 349 3.0 5.0 0.00 0.00 0.00 80 1021.3
20260507063005 54 334 3.0 6.0 0.00 0.00 0.00 80 1021.4
20260507062005 54 330 3.0 6.0 0.00 0.00 0.00 80 1021.4
20260507061505 54 331 3.0 6.0 0.00 0.00 0.00 81 1021.5
20260507061005 54 331 3.0 6.0 0.00 0.00 0.00 81 1021.5
20260507060505 54 339 3.0 6.0 0.00 0.00 0.00 81 1021.4
20260507060005 54 332 3.0 7.0 0.00 0.00 0.00 81 1021.5
20260507055504 54 333 3.0 7.0 0.00 0.00 0.00 81 1021.4
20260507054505 54 332 4.0 7.0 0.00 0.00 0.00 81 1021.3
20260507054004 54 340 5.0 7.0 0.00 0.00 0.00 81 1021.3
20260507053505 54 333 5.0 8.0 0.00 0.00 0.00 81 1021.3
20260507053005 54 329 4.0 7.0 0.00 0.00 0.00 81 1021.2
20260507052505 54 335 3.0 7.0 0.00 0.00 0.00 81 1021.2
20260507052005 54 348 4.0 8.0 0.00 0.00 0.00 81 1021.2
20260507051505 54 344 3.0 6.0 0.00 0.00 0.00 81 1021.2
20260507051005 55 7 5.0 7.0 0.00 0.00 0.00 81 1021.2
20260507050005 55 352 3.0 5.0 0.00 0.00 0.00 80 1021.2
20260507045504 55 351 3.0 5.0 0.00 0.00 0.00 79 1021.2
20260507044505 56 342 2.0 6.0 0.00 0.00 0.00 78 1021.2
20260507044005 56 345 3.0 5.0 0.00 0.00 0.00 78 1021.2
20260507043504 56 349 4.0 7.0 0.00 0.00 0.00 78 1021.2
20260507042505 57 347 2.0 3.0 0.00 0.00 0.00 77 1021.2
20260507042004 57 339 3.0 6.0 0.00 0.00 0.00 76 1021.2
20260507041505 57 346 3.0 6.0 0.00 0.00 0.00 76 1021.2
20260507041004 57 3 3.0 8.0 0.00 0.00 0.00 76 1021.2
20260507040005 57 327 5.0 8.0 0.00 0.00 0.00 76 1021.0
20260507035504 57 356 3.0 7.0 0.00 0.00 0.00 76 1021.0
20260507035004 57 343 3.0 6.0 0.00 0.00 0.00 76 1020.9
20260507034505 58 336 4.0 9.0 0.00 0.00 0.00 75 1020.8
20260507034004 58 342 5.0 9.0 0.00 0.00 0.00 75 1020.8
20260507033505 58 350 5.0 10.0 0.00 0.00 0.00 75 1020.8
20260507033006 58 344 6.0 9.0 0.00 0.00 0.00 74 1020.7
20260507032505 58 349 6.0 10.0 0.00 0.00 0.00 74 1020.6
20260507032004 58 341 5.0 10.0 0.00 0.00 0.00 74 1020.5
20260507031505 59 340 5.0 12.0 0.00 0.00 0.00 73 1020.5
20260507031005 59 346 7.0 13.0 0.00 0.00 0.00 73 1020.4
20260507030504 59 348 6.0 12.0 0.00 0.00 0.00 72 1020.4
20260507030005 59 332 6.0 10.0 0.00 0.00 0.00 72 1020.3
20260507025505 60 334 6.0 13.0 0.00 0.00 0.00 72 1020.3
20260507025004 60 332 6.0 13.0 0.00 0.00 0.00 72 1020.2
20260507024505 60 341 6.0 12.0 0.00 0.00 0.00 72 1020.2
20260507024005 61 329 5.0 10.0 0.00 0.00 0.00 72 1020.1
20260507023504 61 351 5.0 10.0 0.00 0.00 0.00 72 1020.1
20260507023006 61 354 5.0 9.0 0.00 0.00 0.00 72 1020.0
20260507022505 62 345 5.0 9.0 0.00 0.00 0.00 70 1020.0
20260507022004 62 344 5.0 9.0 0.00 0.00 0.00 71 1020.0
20260507021504 63 350 3.0 7.0 0.00 0.00 0.00 71 1020.0
20260507021004 63 338 3.0 7.0 0.00 0.00 0.00 70 1019.9
20260507020505 63 338 3.0 10.0 0.00 0.00 0.00 69 1019.9
20260507020005 63 339 5.0 8.0 0.00 0.00 0.00 69 1019.9
20260507015505 64 333 5.0 8.0 0.00 0.00 0.00 68 1020.0
20260507015005 64 340 6.0 9.0 0.00 0.00 0.00 68 1020.0
20260507014505 64 350 4.0 8.0 0.00 0.00 0.00 68 1020.0
20260507014005 65 348 5.0 12.0 0.00 0.00 0.00 67 1020.1
20260507013505 65 329 5.0 9.0 0.00 0.00 0.00 67 1020.0
20260507013005 66 358 4.0 8.0 0.00 0.00 0.00 67 1020.0
20260507012504 65 330 3.0 6.0 0.00 0.00 0.00 68 1019.9
20260507012004 65 341 5.0 8.0 0.00 0.00 0.00 68 1020.0
20260507011505 65 335 3.0 7.0 0.00 0.00 0.00 69 1020.0
20260507011004 65 336 4.0 7.0 0.00 0.00 0.00 69 1020.1
20260507010005 65 337 5.0 8.0 0.00 0.00 0.00 69 1020.1
20260507005505 65 351 4.0 9.0 0.00 0.00 0.00 69 1020.1
20260507004505 66 333 3.0 6.0 0.00 0.00 0.00 70 1020.0
20260507004004 66 343 3.0 5.0 0.00 0.00 0.00 70 1020.0
20260507003505 66 327 3.0 6.0 0.00 0.00 0.00 70 1020.0
20260507002504 67 358 3.0 8.0 0.00 0.00 0.00 68 1019.9
20260507002005 67 6 3.0 6.0 0.00 0.00 0.00 69 1019.9
20260507001505 67 356 3.0 7.0 0.00 0.00 0.00 68 1019.9
20260507001005 67 335 3.0 6.0 0.00 0.00 0.00 67 1019.8
20260507000505 66 332 3.0 6.0 0.00 0.00 0.00 67 1019.8
20260507000005 66 352 3.0 6.0 0.00 0.00 0.00 68 1019.9
20260506235504 66 333 3.0 5.0 0.00 0.00 0.00 67 1019.9
20260506235004 67 344 3.0 10.0 0.00 0.00 0.00 68 1019.9
20260506234505 67 349 3.0 7.0 0.00 0.00 0.00 68 1019.9
20260506234004 67 325 3.0 5.0 0.00 0.00 0.00 69 1019.9
20260506233504 67 319 3.0 6.0 0.00 0.00 0.00 68 1019.9
20260506233004 67 327 3.0 5.0 0.00 0.00 0.00 67 1019.8
20260506232005 67 347 3.0 6.0 0.00 0.00 0.00 68 1019.8
20260506231505 67 323 3.0 6.0 0.00 0.00 0.00 68 1019.8
20260506230504 68 323 2.0 3.0 0.00 0.00 0.00 69 1019.9
20260506230004 68 329 3.0 6.0 0.00 0.00 0.00 69 1019.9
20260506225504 68 347 2.0 3.0 0.00 0.00 0.00 69 1019.9
20260506225004 68 12 2.0 5.0 0.00 0.00 0.00 69 1019.9
20260506224504 68 356 1.0 2.0 0.00 0.00 0.00 69 1019.9
20260506224005 68 333 1.0 2.0 0.00 0.00 0.00 67 1020.0
20260506223504 68 333 1.0 3.0 0.00 0.00 0.00 67 1020.0
20260506223004 68 26 1.0 3.0 0.00 0.00 0.00 68 1020.0
20260506222504 68 59 2.0 3.0 0.00 0.00 0.00 69 1020.0
20260506222004 68 323 2.0 2.0 0.00 0.00 0.00 68 1020.0
20260506221506 68 332 1.0 3.0 0.00 0.00 0.00 69 1020.1
20260506220504 68 17 1.0 2.0 0.00 0.00 0.00 70 1020.0
20260506220005 68 339 2.0 3.0 0.00 0.00 0.00 70 1020.0
20260506215504 68 326 2.0 5.0 0.00 0.00 0.00 71 1019.9
20260506215006 68 6 2.0 5.0 0.00 0.00 0.00 70 1019.9
20260506214505 67 79 2.0 6.0 0.00 0.00 0.00 72 1019.9
20260506214005 67 13 1.0 3.0 0.00 0.00 0.00 72 1020.0
20260506213006 67 7 2.0 3.0 0.00 0.00 0.00 70 1020.1
20260506212505 68 336 2.0 3.0 0.00 0.00 0.00 70 1020.0
20260506212004 68 75 2.0 3.0 0.00 0.00 0.00 68 1020.1
20260506211505 68 353 1.0 5.0 0.00 0.00 0.00 69 1020.0
20260506211005 68 26 1.0 3.0 0.00 0.00 0.00 70 1020.0
20260506210504 68 143 2.0 8.0 0.00 0.00 0.00 70 1020.0
20260506205504 67 49 1.0 2.0 0.00 0.00 0.00 71 1020.2
20260506204505 67 54 2.0 5.0 0.00 0.00 0.00 71 1020.2
20260506204004 67 51 2.0 2.0 0.00 0.00 0.00 72 1020.2
20260506203505 66 51 3.0 7.0 0.00 0.00 0.00 71 1020.2
20260506202504 66 74 2.0 3.0 0.00 0.00 0.00 71 1020.3
20260506202005 66 248 1.0 5.0 0.00 0.00 0.00 68 1020.3
20260506201505 66 192 2.0 8.0 0.00 0.00 0.00 69 1020.2
20260506201004 66 90 1.0 5.0 0.00 0.00 0.00 70 1020.2
20260506200504 66 139 3.0 6.0 0.00 0.00 0.00 70 1020.3
20260506200004 66 308 2.0 7.0 0.00 0.00 0.00 70 1020.2
20260506195005 65 161 3.0 5.0 0.00 0.00 0.00 71 1020.4
20260506194004 65 80 2.0 5.0 0.00 0.00 0.00 72 1020.5
20260506193505 65 154 3.0 5.0 0.00 0.00 0.00 72 1020.5
20260506193004 65 205 1.0 3.0 0.00 0.00 0.00 73 1020.5
20260506192504 65 90 3.0 6.0 0.00 0.00 0.00 72 1020.5
20260506192004 65 94 3.0 5.0 0.00 0.00 0.00 74 1020.5
20260506191504 64 116 2.0 3.0 0.00 0.00 0.00 73 1020.5
20260506191004 64 161 1.0 2.0 0.00 0.00 0.00 72 1020.6
20260506190504 65 21 1.0 7.0 0.00 0.00 0.00 74 1020.5
20260506190005 65 169 6.0 9.0 0.00 0.00 0.00 72 1020.6
20260506185505 65 287 2.0 8.0 0.00 0.00 0.00 71 1020.6
20260506185004 65 120 5.0 10.0 0.00 0.00 0.00 72 1020.6
20260506184505 65 126 6.0 10.0 0.00 0.00 0.00 72 1020.5
20260506184005 64 109 3.0 12.0 0.00 0.00 0.00 74 1020.5
20260506183504 64 165 5.0 8.0 0.00 0.00 0.00 73 1020.6
20260506183006 63 147 6.0 9.0 0.00 0.00 0.00 75 1020.6
20260506182504 64 0 3.0 10.0 0.00 0.00 0.00 74 1020.6
20260506182004 64 203 3.0 9.0 0.00 0.00 0.00 74 1020.6
20260506181004 64 109 5.0 9.0 0.00 0.00 0.00 72 1020.5